TimeMST,TemperatureF,Dew PointF,Humidity,Sea Level PressureIn,VisibilityMPH,Wind Direction,Wind SpeedMPH,Gust SpeedMPH,PrecipitationIn,Events,Conditions,WindDirDegrees,DateUTC
12:15 AM,60.8,57.2,88,29.54,7.0,SE,3.5,17.3,N/A,,Overcast,140,2013-02-25 07:15:00
12:35 AM,60.8,57.2,88,29.53,7.0,Calm,Calm,-,N/A,,Overcast,0,2013-02-25 07:35:00
12:55 AM,60.8,57.2,88,29.56,10.0,Calm,Calm,-,N/A,,Overcast,0,2013-02-25 07:55:00
1:15 AM,62.6,57.2,82,29.58,10.0,South,6.9,-,N/A,,Overcast,180,2013-02-25 08:15:00
1:35 AM,62.6,57.2,82,29.60,10.0,Calm,Calm,-,N/A,,Overcast,0,2013-02-25 08:35:00
1:55 AM,60.8,57.2,88,29.59,10.0,Calm,Calm,-,N/A,,Overcast,0,2013-02-25 08:55:00
2:15 AM,62.6,57.2,82,29.59,10.0,South,5.8,-,N/A,,Overcast,190,2013-02-25 09:15:00
2:35 AM,62.6,55.4,77,29.57,10.0,South,5.8,-,N/A,,Scattered Clouds,190,2013-02-25 09:35:00
2:55 AM,60.8,50.0,68,29.61,10.0,WNW,16.1,29.9,N/A,,Mostly Cloudy,290,2013-02-25 09:55:00
3:15 AM,59.0,37.4,45,29.62,10.0,West,8.1,24.2,N/A,Rain,Light Rain,280,2013-02-25 10:15:00
3:35 AM,57.2,37.4,48,29.62,10.0,West,8.1,-,N/A,,Overcast,280,2013-02-25 10:35:00
3:55 AM,55.4,35.6,47,29.62,10.0,West,5.8,-,N/A,,Mostly Cloudy,270,2013-02-25 10:55:00
4:15 AM,55.4,35.6,47,29.63,10.0,WNW,6.9,-,N/A,,Overcast,290,2013-02-25 11:15:00
4:35 AM,55.4,33.8,44,29.63,10.0,WNW,8.1,16.1,N/A,,Overcast,300,2013-02-25 11:35:00
4:55 AM,57.2,32.0,38,29.64,10.0,WNW,6.9,16.1,N/A,,Overcast,290,2013-02-25 11:55:00
5:15 AM,57.2,30.2,36,29.64,10.0,WNW,10.4,18.4,N/A,,Overcast,290,2013-02-25 12:15:00
5:35 AM,55.4,30.2,38,29.64,10.0,WNW,9.2,19.6,N/A,,Overcast,290,2013-02-25 12:35:00
5:55 AM,55.4,28.4,36,29.64,10.0,WNW,10.4,20.7,N/A,,Mostly Cloudy,290,2013-02-25 12:55:00
6:15 AM,55.4,26.6,33,29.65,10.0,WNW,10.4,19.6,N/A,,Mostly Cloudy,290,2013-02-25 13:15:00
6:35 AM,53.6,28.4,38,29.66,10.0,WNW,9.2,-,N/A,,Scattered Clouds,290,2013-02-25 13:35:00
6:55 AM,53.6,28.4,38,29.67,10.0,WNW,17.3,24.2,N/A,,Clear,290,2013-02-25 13:55:00
7:15 AM,53.6,26.6,35,29.68,10.0,WNW,16.1,23.0,N/A,,Clear,290,2013-02-25 14:15:00
7:35 AM,53.6,26.6,35,29.68,10.0,West,13.8,20.7,N/A,,Clear,280,2013-02-25 14:35:00
7:55 AM,53.6,23.0,30,29.67,10.0,WNW,16.1,31.1,N/A,,Clear,290,2013-02-25 14:55:00
8:15 AM,53.6,21.2,28,29.67,10.0,West,17.3,31.1,N/A,,Clear,280,2013-02-25 15:15:00
8:35 AM,55.4,21.2,26,29.68,10.0,WNW,15.0,32.2,N/A,,Clear,290,2013-02-25 15:35:00
8:55 AM,55.4,19.4,25,29.68,10.0,West,15.0,29.9,N/A,,Clear,270,2013-02-25 15:55:00
9:15 AM,55.4,19.4,25,29.67,10.0,West,16.1,35.7,N/A,,Clear,270,2013-02-25 16:15:00
9:35 AM,57.2,19.4,23,29.68,10.0,West,20.7,31.1,N/A,,Clear,270,2013-02-25 16:35:00
9:55 AM,57.2,19.4,23,29.68,10.0,West,17.3,34.5,N/A,,Clear,270,2013-02-25 16:55:00
10:15 AM,57.2,21.2,25,29.69,10.0,West,26.5,41.4,N/A,,Clear,270,2013-02-25 17:15:00
10:35 AM,59.0,23.0,25,29.68,10.0,West,20.7,28.8,N/A,,Clear,280,2013-02-25 17:35:00
10:55 AM,57.2,24.8,29,29.68,10.0,West,18.4,31.1,N/A,,Clear,280,2013-02-25 17:55:00
11:15 AM,55.4,26.6,33,29.68,10.0,West,25.3,38.0,N/A,,Scattered Clouds,280,2013-02-25 18:15:00
11:35 AM,55.4,28.4,36,29.68,10.0,West,18.4,41.4,N/A,,Mostly Cloudy,270,2013-02-25 18:35:00
11:55 AM,55.4,28.4,36,29.69,10.0,WNW,20.7,35.7,N/A,,Mostly Cloudy,290,2013-02-25 18:55:00
12:15 PM,53.6,26.6,35,29.69,10.0,West,24.2,41.4,N/A,,Scattered Clouds,280,2013-02-25 19:15:00
12:35 PM,51.8,26.6,38,29.69,10.0,West,24.2,36.8,N/A,,Clear,280,2013-02-25 19:35:00
12:55 PM,53.6,26.6,35,29.69,10.0,WNW,21.9,33.4,N/A,,Mostly Cloudy,290,2013-02-25 19:55:00
1:15 PM,53.6,24.8,33,29.69,10.0,West,26.5,44.9,N/A,,Overcast,280,2013-02-25 20:15:00
1:35 PM,53.6,24.8,33,29.68,10.0,West,27.6,42.6,N/A,,Mostly Cloudy,270,2013-02-25 20:35:00
1:55 PM,51.8,26.6,38,29.69,10.0,WNW,23.0,36.8,N/A,,Overcast,290,2013-02-25 20:55:00
2:15 PM,50.0,26.6,40,29.70,10.0,WNW,24.2,38.0,N/A,,Overcast,290,2013-02-25 21:15:00
2:35 PM,50.0,26.6,40,29.70,10.0,WNW,20.7,38.0,N/A,,Overcast,290,2013-02-25 21:35:00
2:55 PM,50.0,26.6,40,29.71,10.0,WNW,31.1,48.3,N/A,,Overcast,300,2013-02-25 21:55:00
3:15 PM,48.2,28.4,46,29.71,10.0,West,16.1,24.2,N/A,,Overcast,280,2013-02-25 22:15:00
3:35 PM,46.4,26.6,46,29.72,10.0,West,20.7,34.5,N/A,,Overcast,280,2013-02-25 22:35:00
3:55 PM,46.4,26.6,46,29.73,10.0,WNW,18.4,35.7,N/A,,Overcast,290,2013-02-25 22:55:00
4:15 PM,46.4,26.6,46,29.74,10.0,WNW,18.4,33.4,N/A,,Overcast,290,2013-02-25 23:15:00
4:35 PM,46.4,28.4,50,29.73,10.0,WNW,18.4,31.1,N/A,,Overcast,300,2013-02-25 23:35:00
4:55 PM,44.6,28.4,53,29.75,10.0,WNW,20.7,38.0,N/A,,Overcast,300,2013-02-25 23:55:00
5:15 PM,44.6,28.4,53,29.75,10.0,WNW,23.0,35.7,N/A,,Overcast,300,2013-02-26 00:15:00
5:35 PM,44.6,28.4,53,29.77,10.0,NW,18.4,31.1,N/A,,Overcast,310,2013-02-26 00:35:00
5:55 PM,44.6,28.4,53,29.78,10.0,WNW,24.2,38.0,N/A,,Overcast,290,2013-02-26 00:55:00
6:15 PM,44.6,28.4,53,29.78,10.0,NW,24.2,40.3,N/A,,Overcast,310,2013-02-26 01:15:00
6:35 PM,44.6,28.4,53,29.80,10.0,NW,25.3,42.6,N/A,,Overcast,310,2013-02-26 01:35:00
6:55 PM,44.6,30.2,57,29.80,10.0,WNW,17.3,32.2,N/A,,Overcast,300,2013-02-26 01:55:00
7:15 PM,44.6,30.2,57,29.81,10.0,WNW,23.0,33.4,N/A,,Overcast,300,2013-02-26 02:15:00
7:35 PM,44.6,30.2,57,29.82,10.0,WNW,18.4,27.6,N/A,,Overcast,300,2013-02-26 02:35:00
7:55 PM,44.6,30.2,57,29.82,10.0,NW,21.9,33.4,N/A,,Overcast,310,2013-02-26 02:55:00
8:15 PM,44.6,30.2,57,29.83,10.0,WNW,13.8,32.2,N/A,,Overcast,300,2013-02-26 03:15:00
8:35 PM,44.6,28.4,53,29.84,10.0,WNW,20.7,35.7,N/A,,Mostly Cloudy,300,2013-02-26 03:35:00
8:55 PM,44.6,28.4,53,29.84,10.0,WNW,15.0,27.6,N/A,,Mostly Cloudy,300,2013-02-26 03:55:00
9:35 PM,44.6,28.4,53,29.84,10.0,WNW,17.3,31.1,N/A,,Scattered Clouds,300,2013-02-26 04:35:00
9:55 PM,44.6,28.4,53,29.84,10.0,NW,13.8,23.0,N/A,,Clear,310,2013-02-26 04:55:00
10:15 PM,44.6,28.4,53,29.85,10.0,NW,16.1,28.8,N/A,,Clear,310,2013-02-26 05:15:00
10:35 PM,44.6,28.4,53,29.84,10.0,NW,18.4,33.4,N/A,,Clear,310,2013-02-26 05:35:00
10:55 PM,44.6,28.4,53,29.85,10.0,WNW,17.3,29.9,N/A,,Clear,300,2013-02-26 05:55:00
11:15 PM,42.8,28.4,57,29.85,10.0,NW,12.7,32.2,N/A,,Clear,310,2013-02-26 06:15:00
11:35 PM,42.8,28.4,57,29.85,10.0,WNW,11.5,18.4,N/A,,Clear,290,2013-02-26 06:35:00
11:55 PM,42.8,28.4,57,29.85,10.0,NW,11.5,24.2,N/A,,Clear,310,2013-02-26 06:55:00